Tracking 28790 objects as of 19-Apr-2024
HD Live streaming from Space Station
objects crossing your sky now

NAPA-1

Track NAPA-1 now!
10-day predictions


NORAD ID: 46320
Int'l Code: 2020-061BA
Perigee: 504.9 km
Apogee: 507.7 km
Inclination: 97.4 °
Period: 94.6 minutes
Semi major axis: 6877 km
RCS: Unknown
Launch date: September 3, 2020
Source: Thailand (THAI)
Launch site: FRENCH GUIANA (FRGUI)
Your satellite tracking list
Your tracking list is empty




NASA's NSSDC Master Catalog

Two Line Element Set (TLE):
1 46320U 20061BA  24109.88068605  .00011331  00000-0  49590-3 0  9990
2 46320  97.3590 174.5073 0002067  30.3472 329.7884 15.22205639200278
Source of the keplerian elements: AFSPC